EW5523 Weather Reports


time (UTC)temp
C
wind
direction
speed
KPH
gust
KPH
rain 1hr
cm
rain 24hr
cm
rain mn
cm
humidity
%
barometer
mb
20260504081506 17 191 1.6 12.9 0.00 0.00 0.00 39 1009.0
20260504044535 13 308 0.0 6.4 0.00 0.00 0.00 47 1010.3
20260504043033 12 293 0.0 0.0 0.00 0.00 0.00 53 1010.4
20260504041526 11 283 0.0 3.2 0.00 0.00 0.00 52 1010.4
20260504040022 11 305 0.0 0.0 0.00 0.00 0.00 55 1010.4
20260504034520 10 191 0.0 0.0 0.00 0.00 0.00 57 1010.4
20260504033016 9 190 0.0 0.0 0.00 0.00 0.00 57 1010.5
20260504031514 8 164 0.0 0.0 0.00 0.00 0.00 58 1010.5
20260504030011 7 162 0.0 0.0 0.00 0.00 0.00 66 1010.6
20260504024512 7 162 0.0 0.0 0.00 0.00 0.00 70 1010.6
20260504023009 7 162 0.0 0.0 0.00 0.00 0.00 72 1010.6
20260504021508 5 163 0.0 0.0 0.00 0.00 0.00 76 1010.7
20260504020006 5 162 0.0 0.0 0.00 0.00 0.00 77 1010.8
20260504014506 3 162 0.0 0.0 0.00 0.00 0.00 77 1010.9
20260504013004 3 162 0.0 0.0 0.00 0.00 0.00 79 1010.9
20260504011503 2 162 0.0 0.0 0.00 0.00 0.00 78 1011.0
20260504010101 2 162 0.0 0.0 0.00 0.00 0.00 76 1011.0
20260504004557 3 162 0.0 0.0 0.00 0.00 0.00 73 1011.0
20260504003056 3 162 0.0 0.0 0.00 0.00 0.00 72 1011.0
20260504001555 3 162 0.0 0.0 0.00 0.00 0.00 71 1011.2
20260504000127 3 162 0.0 0.0 0.00 0.00 0.00 69 1011.3
20260503234548 4 162 0.0 0.0 0.00 0.00 0.00 67 1011.4
20260503233044 5 162 0.0 0.0 0.00 0.00 0.00 64 1011.4
20260503231542 5 162 0.0 0.0 0.00 0.00 0.00 62 1011.5
20260503230041 5 162 0.0 0.0 0.00 0.00 0.00 61 1011.6
20260503224537 6 162 0.0 0.0 0.00 0.00 0.00 59 1011.7
20260503223034 6 162 0.0 0.0 0.00 0.00 0.00 58 1011.8
20260503221530 7 162 0.0 0.0 0.00 0.00 0.00 56 1011.9
20260503220029 7 162 0.0 0.0 0.00 0.00 0.00 55 1011.9
20260503214525 7 162 0.0 0.0 0.00 0.00 0.00 54 1012.1
20260503213024 7 154 0.0 0.0 0.00 0.00 0.00 53 1012.1
20260503211523 8 152 0.0 0.0 0.00 0.00 0.00 52 1012.2
20260503210021 7 152 0.0 0.0 0.00 0.00 0.00 52 1012.2
20260503204519 8 152 0.0 0.0 0.00 0.00 0.00 51 1012.3
20260503203019 8 152 0.0 0.0 0.00 0.00 0.00 51 1012.3
20260503201518 8 152 0.0 0.0 0.00 0.00 0.00 51 1012.5
20260503200014 8 152 0.0 0.0 0.00 0.00 0.00 50 1012.5
20260503194515 8 152 0.0 0.0 0.00 0.00 0.00 49 1012.8
20260503193013 8 152 0.0 0.0 0.00 0.00 0.00 49 1012.8
20260503191511 9 152 0.0 0.0 0.00 0.00 0.00 48 1012.9
20260503190009 9 152 0.0 0.0 0.00 0.00 0.00 47 1012.9
20260503184516 10 152 0.0 0.0 0.00 0.00 0.00 46 1012.9
20260503183009 10 152 0.0 0.0 0.00 0.00 0.00 45 1013.0
20260503181507 10 152 0.0 0.0 0.00 0.00 0.00 46 1013.1
20260503180006 10 152 0.0 0.0 0.00 0.00 0.00 46 1013.2
20260503174504 10 152 0.0 0.0 0.00 0.00 0.00 47 1013.3
20260503173005 10 152 0.0 0.0 0.00 0.00 0.00 47 1013.3
20260503171507 10 152 0.0 0.0 0.00 0.00 0.00 46 1013.4